Preview of NWS' New Version of Forecast
This preview is not operational and should not be used for support decisions.

Regional Weather Roundup (RWR)

Issued by National Weather Service (NWS)

                            
000
ASUS45 KCYS 181110
RWRWY 

WYOMING REGIONAL WEATHER ROUNDUP
NATIONAL WEATHER SERVICE CHEYENNE WY
500 AM MDT THU APR 18 2019

NOTE:  "FAIR" INDICATES FEW OR NO CLOUDS BELOW 12,000 FEET
WITH NO SIGNIFICANT WEATHER AND/OR OBSTRUCTIONS TO VISIBILITY.

WYZ001-181200-
...YELLOWSTONE NATIONAL PARK...
  
CITY           SKY/WX    TMP DP  RH WIND       PRES   REMARKS
LK YELLOWSTONE NOT AVBL                                               
W YELLOWSTONE  NOT AVBL                                               

$$
WYZ002>013-054>058-071-098>099-181200-
...NORTHERN WYOMING...
  
CITY           SKY/WX    TMP DP  RH WIND       PRES   REMARKS
JACKSON        PTCLDY    36  29  75 SE7       30.29R WCI  30          
CODY           CLEAR     28  23  81 S7        30.22R WCI  21          
GREYBULL       PTCLDY    44  25  47 NW15G23   30.17R                  
WORLAND        MOCLDY    43  25  49 VRB3      30.19R                  
SHERIDAN       MOCLDY    41  27  57 NE9       30.16R                  
BUFFALO        PTCLDY    38  27  64 N12       30.13R WCI  30          
GILLETTE       LGT RAIN  39  34  82 NW20G32   30.11R WCI  29          
HULETT         FAIR      39  32  75 W6        30.08R WCI  35          
NEWCASTLE      CLOUDY    36  32  87 NW7       30.09R WCI  30          

$$
WYZ014>020-022>026-101>103-181200-
...CENTRAL WYOMING...
  
CITY           SKY/WX    TMP DP  RH WIND       PRES   REMARKS
BIG PINEY      CLEAR     33  25  72 N13       30.25R WCI  24          
PINEDALE       CLEAR     32  28  86 W9        30.25S WCI  24          
DUBOIS         FAIR      34  25  69 CALM      30.24R                  
LANDER         CLEAR     38  25  59 NE7       30.21R WCI  33          
RIVERTON       CLEAR     38  23  55 N10       30.20R WCI  31          
CASPER         CLOUDY    36  30  79 W12       30.15R WCI  28          
DOUGLAS        LGT RAIN  37  35  92 N21G29    30.14R WCI  26          

$$
WYZ021-027>030-104>119-181200-
...SOUTHERN WYOMING...
  
CITY           SKY/WX    TMP DP  RH WIND       PRES   REMARKS
EVANSTON       CLEAR     34  27  75 SW9       30.33R WCI  27          
KEMMERER       CLEAR     32  30  93 W22       30.28R WCI  19          
FORT BRIDGER   NOT AVBL                                               
ROCK SPRINGS   CLEAR     36  29  75 W22       30.24R WCI  25          
DIXON          CLOUDY    40  29  66 S7        30.26R WCI  35          
RAWLINS        CLEAR     34  30  85 W18G25    30.18R WCI  23          
SARATOGA       MOCLDY    34  30  86 W7        30.20R WCI  28          
LARAMIE        MOCLDY    31  24  75 W16       30.12R WCI  20          
CHEYENNE       MOCLDY    35  31  85 N9        30.10R WCI  28          
TORRINGTON     CLOUDY    42  35  76 NW10      30.07R                  
PINE BLUFFS    CLOUDY    37  34  87 NW14      30.10R WCI  29          

$$